Regional Weather Roundup
Issued by NWS

Home | Current Version | Previous Version | Graphics & Text | Print | Product List | Glossary On
Versions: 1 2 3 4 5 6 7 8 9 10 11 12 13 14 15 16 17 18 19 20 21 22 23 24 25 26 27 28 29 30 31 32 33 34 35 36 37 38 39 40 41 42 43 44 45 46 47 48 49 50
000
ASUS45 KCYS 010810
RWRWY

WYOMING REGIONAL WEATHER ROUNDUP
NATIONAL WEATHER SERVICE CHEYENNE WY
100 AM MST SUN FEB 01 2015

NOTE:  "FAIR" INDICATES FEW OR NO CLOUDS BELOW 12,000 FEET
WITH NO SIGNIFICANT WEATHER AND/OR OBSTRUCTIONS TO VISIBILITY.

WYZ001-010900-
YELLOWSTONE NATIONAL PARK

CITY           SKY/WX    TMP DP  RH WIND       PRES   REMARKS
LK YELLOWSTONE   N/A      4   0  83 CALM      30.10R
W YELLOWSTONE  NOT AVBL

$$
WYZ002>013-054>058-071-098>099-010900-
NORTHERN WYOMING

CITY           SKY/WX    TMP DP  RH WIND       PRES   REMARKS
JACKSON        FAIR       9   7  92 CALM      30.13R
CODY           CLOUDY    12  12 100 N12       30.15S WCI  -2
GREYBULL       FAIR      17   9  70 W18       30.19R WCI   1
WORLAND        CLOUDY    19  11  70 N7        30.19R WCI  10
SHERIDAN       CLOUDY    12   5  73 NW15      30.26R WCI  -4
BUFFALO        LGT SNOW  10   7  87 N23G35    30.14F FOG     WCI -10
GILLETTE       CLOUDY    11   6  81 N17       30.16S WCI  -6
HULETT           N/A    N/A N/A N/A MISG        N/A
NEWCASTLE      PTSUNNY   18  12  79 NW21G26   30.11R WCI   1

$$
WYZ014>020-022>026-101>103-010900-
CENTRAL WYOMING

CITY           SKY/WX    TMP DP  RH WIND       PRES   REMARKS
BIG PINEY      FAIR      18   7  62 N10       30.07R WCI   6
PINEDALE       FAIR      10   3  72 W13       30.07R WCI  -5
DUBOIS         FAIR      19  10  68 NW6       30.03R WCI  11
LANDER         CLOUDY    24  17  74 N5        30.08F WCI  18
RIVERTON       CLOUDY    22  18  85 NE8       30.10S WCI  12
CASPER         CLOUDY    17  11  77 NE10      30.12R WCI   5
DOUGLAS        CLOUDY    19  11  70 N20G30    30.11R WCI   3

$$
WYZ021-027>030-104>119-010900-
SOUTHERN WYOMING

CITY           SKY/WX    TMP DP  RH WIND       PRES   REMARKS
EVANSTON       FAIR      23  18  81 SW7       30.12S WCI  15
FORT BRIDGER   FAIR      28  15  57 W9        30.14R WCI  19
ROCK SPRINGS   FAIR      20  16  84 SW6       30.07S WCI  12
DIXON          FAIR      23  20  86 CALM      30.08R
RAWLINS        FAIR      17  13  84 W5        30.05R WCI  10
SARATOGA       CLOUDY    23  19  86 W3        30.03S
LARAMIE        FLURRIES  19  16  88 N10       29.96S WCI   7
CHEYENNE       LGT SNOW  21  16  81 N21G32    29.98R WCI   5
TORRINGTON     FAIR      24  15  68 N20G32    30.06R WCI  10
PINE BLUFFS    CLOUDY    25  21  86 N20G28    30.00R WCI  11

$$


USA.gov is the U.S. government's official web portal to all federal, state and local government web resources and services.